Temp
3 3 4 4 5 5 5 5 5 5 5 5 6 6 6 6 6 6 6 6 6 6 6 6 6 6 6 6 6 6 6 6 6 6 5 5 5 5 6 7 7 7 8 7 7 8 6
2 3 3 3 4 4 4 5 5 5 5 5 5 5 5 6 6 6 6 6 6 6 6 6 6 6 6 6 6 5 5 6 6 6 5 5 6 6 6 7 7 8 8 6 8 6 6
2 2 3 3 3 3 4 4 5 4 5 5 4 5 5 5 6 6 6 6 6 6 6 6 6 6 6 5 6 5 5 5 6 5 5 5 5 6 6 7 7 8 7 8 7 7 8
2 2 2 3 3 3 3 3 4 4 4 4 4 4 4 5 5 5 6 6 6 6 6 6 6 6 6 5 5 6 6 6 6 6 6 5 5 5 6 6 7 8 8 8 8 7 8
2 2 3 2 3 3 3 3 3 4 4 4 4 4 4 4 5 5 5 6 5 5 5 5 5 6 6 6 6 6 6 6 6 6 5 5 6 5 6 7 7 8 8 8 8 8 8
3 3 2 2 2 3 3 3 3 3 3 3 4 3 4 4 5 5 5 5 5 5 5 5 5 6 6 6 6 5 6 6 5 6 6 6 6 6 6 6 7 8 8 8 8 8 8
2 2 2 2 2 2 3 3 3 3 3 3 4 3 3 4 4 4 5 5 4 5 5 5 5 5 6 5 5 6 6 6 6 6 6 6 6 7 7 6 7 8 8 8 9 9 9
2 2 2 2 2 2 2 3 3 3 3 3 3 3 3 3 4 4 4 4 5 6 6 5 6 5 6 5 5 6 6 6 6 6 6 5 6 6 6 7 7 8 8 8 9 9 9
1 1 2 2 2 2 2 2 3 3 3 3 3 3 3 3 3 3 4 3 3 3 3 5 6 6 6 6 6 6 6 6 6 6 6 6 6 6 7 7 7 8 8 9 9 9 9
2 2 2 2 2 2 2 2 2 2 2 2 2 2 2 3 3 3 2 3 3 3 3 6 6 6 5 5 6 6 6 7 6 6 6 6 7 7 7 7 8 8 8 8 8 8 9
2 2 2 2 2 2 2 2 2 2 2 2 2 2 2 2 3 2 3 3 3 2 1 6 6 6 6 6 7 6 6 7 7 6 6 6 6 7 6 7 8 8 8 8 9 8 8
2 2 2 2 2 2 2 2 2 2 2 2 2 2 2 2 2 1 2 2 2 2 2 6 6 5 6 6 6 6 6 7 6 6 6 6 6 6 7 7 8 8 8 8 8 8 5
-1 1 2 2 2 2 2 2 2 2 2 2 2 2 2 1 2 0 1 2 1 1 6 7 6 6 6 6 6 6 7 7 7 6 7 7 7 7 7 8 8 8 8 7 5 3 2
-9 -4 1 2 2 2 2 2 2 2 2 2 1 2 2 1 1 0 1 1 1 4 6 7 7 6 6 6 6 6 7 7 7 7 7 6 7 6 6 7 8 8 8 7 3 1 4
-11 -10 -8 -1 1 2 2 2 2 2 2 1 1 1 2 1 -0 1 1 -0 1 4 6 7 7 7 6 6 7 7 7 7 7 7 7 6 6 6 6 7 7 8 7 8 7 4 2
-10 -10 -10 -10 -4 0 1 2 2 1 1 1 0 1 2 0 -1 0 0 -0 2 6 6 7 6 7 7 7 7 7 7 7 7 7 7 6 6 5 5 6 7 7 8 8 8 3 4
-11 -11 -11 -11 -10 -4 -2 0 1 1 1 0 -2 -0 2 -1 -1 -0 -0 -1 3 6 6 5 7 7 7 7 7 7 7 7 8 7 7 7 7 6 5 5 7 7 7 7 7 7 2
-11 -11 -11 -11 -12 -11 -9 -4 -0 0 -0 -2 -2 -2 -0 -1 -2 -0 1 1 4 6 6 5 6 7 7 7 7 7 7 7 7 7 8 5 6 6 6 7 7 7 7 6 7 7 7
-11 -11 -11 -11 -12 -11 -10 -9 -6 -3 -1 -2 -4 -4 -3 -2 -1 0 -0 2 4 5 5 5 6 7 7 7 6 8 8 7 7 7 7 7 7 7 7 7 7 7 7 8 7 7 7
-11 -12 -12 -12 -12 -10 -10 -10 -9 -7 -3 -4 -3 -4 -3 -1 -0 1 1 2 3 5 5 4 5 7 7 7 7 6 8 7 7 7 7 7 6 6 6 7 7 7 7 7 7 7 7
-11 -12 -12 -12 -11 -11 -10 -9 -10 -8 -6 -4 -3 -3 -2 -1 -0 -1 0 2 3 4 4 4 5 6 6 7 7 7 7 7 6 6 6 6 6 6 6 6 6 6 6 6 7 7 7
-10 -12 -12 -12 -11 -11 -10 -8 -10 -9 -7 -4 -4 -3 -2 -1 -1 -1 -1 2 2 4 4 4 5 6 6 6 7 7 7 6 6 6 6 5 5 5 5 5 6 6 6 6 6 7 7
-10 -11 -11 -11 -11 -11 -10 -8 -9 -9 -7 -4 -3 -3 -2 -1 -1 -1 1 2 2 5 4 5 5 6 6 6 6 6 7 6 6 6 6 5 5 5 5 5 5 5 6 6 6 6 6
-11 -11 -11 -11 -11 -11 -10 -9 -8 -8 -6 -4 -3 -3 -1 -1 -0 1 1 1 2 4 4 5 5 6 6 6 6 6 6 6 5 4 5 5 5 4 4 4 -0 5 5 6 6 5 5
-11 -11 -11 -11 -11 -10 -9 -9 -8 -8 -6 -5 -3 -2 -1 -1 -1 -0 1 2 3 4 4 5 5 5 5 5 6 5 5 4 3 4 4 4 4 4 3 3 4 5 5 5 6 5 5
-11 -11 -11 -11 -10 -10 -10 -9 -8 -7 -7 -5 -3 -2 -1 -0 1 1 1 2 4 4 4 5 3 5 5 4 5 5 5 5 4 3 4 3 3 3 2 3 -2 4 5 5 5 4 4
-11 -11 -10 -10 -10 -10 -9 -9 -8 -6 -7 -5 -3 -2 -1 -0 -0 0 2 3 3 3 4 3 2 4 4 5 5 4 4 4 4 3 3 3 2 2 2 3 3 3 4 4 4 3 3
-10 -10 -10 -10 -9 -9 -9 -9 -8 -5 -7 -4 -3 -2 -1 -1 -0 0 2 3 3 3 4 2 1 3 4 4 4 4 4 4 4 4 4 4 3 2 2 2 2 3 3 3 3 3 3
-10 -10 -10 -9 -9 -9 -9 -9 -9 -6 -5 -3 -2 -2 -1 -1 0 1 2 1 3 4 4 3 2 4 4 4 4 4 4 4 4 3 3 3 3 3 3 3 3 3 3 3 2 2 2
Height
3119 3120 3121 3123 3126 3128 3129 3130 3132 3133 3135 3137 3138 3138 3139 3138 3138 3137 3137 3135 3132 3131 3129 3126 3124 3124 3124 3123 3124 3124 3122 3121 3120 3120 3122 3123 3126 3128 3129 3131 3132 3135 3134 3138 3136 3131 3138
3114 3114 3115 3117 3118 3120 3122 3124 3125 3127 3129 3131 3132 3133 3133 3134 3134 3133 3133 3132 3129 3128 3126 3124 3122 3122 3122 3123 3122 3122 3122 3121 3121 3121 3123 3124 3127 3131 3131 3131 3133 3134 3134 3135 3133 3131 3135
3106 3109 3110 3111 3113 3114 3115 3117 3119 3121 3122 3124 3126 3128 3128 3130 3130 3129 3129 3128 3126 3125 3123 3121 3120 3121 3121 3123 3121 3123 3123 3124 3123 3123 3124 3125 3129 3129 3128 3128 3129 3131 3134 3136 3134 3134 3133
3098 3100 3103 3106 3107 3109 3110 3111 3112 3114 3116 3118 3120 3122 3124 3125 3126 3125 3126 3125 3124 3122 3121 3119 3119 3120 3120 3121 3122 3123 3123 3125 3125 3125 3125 3124 3126 3127 3128 3129 3130 3131 3135 3136 3137 3134 3134
3089 3092 3094 3097 3101 3103 3105 3105 3106 3108 3110 3112 3114 3116 3119 3121 3122 3122 3122 3121 3120 3119 3117 3117 3118 3118 3119 3120 3121 3123 3122 3124 3123 3125 3125 3125 3126 3127 3130 3129 3131 3133 3134 3135 3136 3134 3136
3078 3081 3086 3089 3092 3095 3098 3099 3101 3102 3104 3106 3108 3111 3113 3117 3118 3118 3119 3117 3116 3116 3115 3115 3117 3120 3120 3121 3122 3123 3123 3124 3126 3125 3125 3125 3126 3128 3130 3128 3130 3132 3134 3133 3133 3134 3137
3065 3070 3074 3079 3083 3085 3089 3094 3095 3096 3098 3100 3103 3105 3108 3111 3113 3114 3115 3114 3116 3114 3111 3113 3114 3116 3117 3120 3122 3123 3124 3125 3125 3126 3125 3127 3128 3128 3129 3130 3131 3134 3133 3133 3131 3133 3135
3049 3055 3061 3066 3073 3078 3080 3084 3089 3090 3092 3094 3096 3099 3103 3106 3108 3110 3111 3111 3109 3110 3110 3109 3110 3112 3114 3115 3119 3121 3125 3126 3125 3126 3127 3130 3128 3129 3129 3129 3130 3131 3132 3129 3130 3132 3134
3032 3038 3046 3052 3059 3066 3072 3076 3079 3084 3087 3088 3091 3094 3099 3103 3104 3107 3108 3109 3107 3107 3106 3107 3108 3111 3113 3116 3117 3118 3124 3125 3126 3126 3127 3128 3129 3129 3128 3128 3128 3132 3131 3128 3130 3132 3133
3013 3021 3028 3036 3044 3052 3060 3066 3071 3076 3080 3083 3084 3088 3094 3097 3103 3103 3103 3104 3105 3106 3106 3104 3104 3107 3111 3113 3115 3117 3121 3125 3125 3125 3127 3127 3126 3128 3128 3127 3127 3129 3130 3130 3131 3133 3134
2990 3001 3010 3019 3029 3037 3046 3055 3061 3066 3072 3076 3079 3083 3088 3090 3097 3099 3102 3101 3102 3107 3107 3101 3101 3105 3108 3111 3113 3116 3118 3122 3122 3125 3126 3126 3125 3127 3126 3127 3127 3128 3128 3129 3130 3131 3134
2966 2979 2990 3000 3011 3022 3031 3040 3049 3056 3063 3068 3073 3077 3081 3086 3094 3096 3098 3101 3103 3107 3101 3097 3098 3101 3106 3108 3110 3114 3117 3120 3120 3123 3123 3124 3125 3126 3125 3125 3127 3127 3127 3128 3128 3128 3130
2941 2954 2967 2980 2991 3004 3016 3025 3036 3043 3052 3059 3065 3070 3076 3081 3089 3087 3093 3098 3104 3099 3096 3096 3096 3100 3103 3106 3108 3111 3114 3116 3119 3121 3121 3122 3123 3126 3126 3126 3126 3127 3127 3127 3129 3130 3131
2920 2929 2942 2956 2970 2984 2997 3011 3022 3032 3040 3048 3055 3062 3069 3076 3080 3085 3090 3094 3092 3089 3090 3093 3094 3098 3101 3104 3107 3108 3111 3113 3116 3117 3118 3121 3123 3124 3126 3127 3127 3126 3126 3126 3131 3134 3130
2904 2913 2920 2931 2946 2963 2978 2992 3007 3019 3030 3038 3046 3051 3058 3071 3074 3080 3085 3083 3078 3083 3087 3089 3093 3095 3098 3101 3105 3107 3108 3110 3112 3114 3117 3117 3120 3121 3123 3122 3127 3125 3124 3123 3123 3127 3129
2887 2899 2907 2913 2922 2940 2957 2974 2990 3005 3018 3027 3034 3039 3050 3065 3067 3073 3076 3068 3072 3080 3083 3088 3091 3092 3095 3098 3102 3102 3105 3107 3108 3110 3113 3114 3117 3117 3123 3121 3120 3122 3123 3123 3120 3126 3126
2874 2884 2892 2901 2909 2920 2937 2954 2972 2989 3005 3016 3026 3031 3043 3056 3061 3064 3055 3058 3068 3075 3079 3084 3085 3088 3091 3094 3096 3099 3101 3103 3103 3107 3110 3112 3115 3114 3120 3119 3119 3120 3118 3119 3120 3120 3120
2859 2870 2878 2888 2898 2909 2922 2937 2953 2972 2989 3003 3011 3021 3033 3044 3049 3048 3045 3053 3064 3070 3076 3078 3082 3085 3087 3090 3095 3095 3096 3099 3100 3102 3103 3112 3110 3110 3113 3115 3115 3116 3116 3116 3116 3118 3117
2845 2856 2866 2876 2887 2899 2912 2922 2938 2956 2973 2989 3001 3015 3026 3037 3036 3036 3042 3052 3059 3064 3068 3073 3077 3079 3083 3087 3090 3091 3093 3094 3098 3101 3103 3105 3106 3108 3111 3113 3113 3112 3112 3113 3112 3112 3112
2832 2843 2854 2865 2876 2888 2901 2913 2927 2942 2961 2980 2992 3006 3016 3021 3027 3030 3035 3044 3051 3059 3063 3068 3074 3077 3079 3083 3084 3087 3088 3091 3092 3096 3099 3102 3103 3105 3106 3108 3110 3109 3107 3108 3109 3108 3110
2821 2832 2843 2854 2866 2879 2892 2903 2918 2932 2950 2970 2978 2986 2996 2999 3007 3019 3031 3039 3045 3052 3058 3064 3069 3072 3075 3079 3082 3085 3084 3087 3089 3092 3095 3097 3098 3101 3103 3105 3105 3104 3105 3105 3105 3105 3105
2811 2823 2835 2846 2859 2871 2884 2894 2907 2924 2942 2957 2965 2979 2992 2994 3003 3015 3021 3027 3037 3047 3054 3060 3065 3068 3072 3074 3077 3079 3081 3084 3086 3090 3091 3092 3094 3097 3099 3100 3100 3100 3101 3100 3101 3101 3101
2805 2817 2829 2841 2853 2865 2876 2889 2900 2915 2932 2940 2956 2976 2987 2991 2997 3007 3005 3019 3030 3044 3050 3057 3061 3066 3070 3072 3075 3077 3079 3080 3083 3087 3088 3091 3093 3094 3096 3097 3097 3097 3096 3096 3096 3098 3099
2803 2815 2827 2837 2848 2859 2870 2882 2896 2910 2921 2936 2954 2973 2978 2986 2992 2990 3009 3020 3029 3036 3045 3053 3057 3062 3064 3068 3072 3076 3076 3078 3082 3083 3086 3086 3090 3091 3092 3094 3097 3092 3091 3092 3093 3094 3094
2803 2813 2823 2833 2843 2852 2865 2878 2893 2907 2917 2932 2949 2966 2969 2980 2988 2998 3005 3013 3028 3035 3042 3049 3052 3056 3060 3064 3067 3071 3074 3077 3079 3083 3083 3085 3085 3086 3088 3089 3089 3088 3088 3089 3089 3091 3090
2802 2811 2821 2831 2840 2849 2863 2876 2890 2905 2915 2930 2943 2959 2965 2974 2974 2990 3001 3011 3020 3028 3034 3036 3042 3050 3054 3060 3063 3064 3069 3073 3076 3077 3078 3079 3081 3083 3084 3085 3086 3084 3085 3085 3086 3086 3087
2802 2811 2820 2831 2839 2850 2862 2875 2889 2901 2912 2926 2939 2954 2962 2968 2974 2987 2992 3000 3016 3024 3028 3029 3039 3044 3048 3052 3057 3061 3065 3069 3069 3071 3072 3074 3076 3078 3080 3081 3080 3080 3082 3082 3084 3087 3083
2803 2813 2821 2830 2841 2852 2863 2875 2886 2899 2913 2922 2940 2951 2961 2965 2973 2984 2994 3003 3011 3014 3016 3025 3037 3037 3040 3047 3053 3057 3061 3065 3066 3067 3068 3070 3072 3074 3077 3078 3078 3076 3077 3080 3080 3078 3080
2807 2816 2823 2833 2843 2852 2863 2874 2883 2895 2915 2927 2938 2953 2962 2964 2973 2983 2991 2999 3004 3009 3013 3019 3026 3032 3034 3043 3048 3053 3057 3060 3062 3064 3066 3068 3069 3071 3074 3073 3073 3073 3073 3074 3074 3077 3076
Wind_Speed
26 28 30 33 34 34 34 33 32 29 28 26 25 23 22 19 19 20 21 21 21 21 23 18 14 12 9 5 5 10 10 6 3 4 7 11 7 3 5 4 7 10 12 7 10 14 13
27 26 25 26 29 32 33 34 33 32 29 28 25 23 21 20 18 19 20 21 20 21 21 15 11 10 5 1 6 4 6 4 1 5 11 14 7 6 15 17 13 7 8 11 7 7 5
29 29 28 26 25 25 29 32 34 33 32 30 27 23 21 20 18 18 19 20 19 21 18 12 9 7 2 4 6 7 6 4 6 7 16 8 5 8 7 8 4 7 4 1 6 7 5
33 31 30 29 27 25 24 26 31 33 32 31 28 24 22 20 17 18 18 19 18 19 14 9 7 4 3 4 4 2 4 1 2 2 9 1 10 12 9 5 3 2 6 5 8 6 3
39 37 34 33 32 29 26 24 25 29 32 32 29 25 22 20 17 17 17 17 17 15 12 8 6 5 6 6 7 3 4 3 8 5 8 7 5 12 5 5 5 8 7 5 10 9 8
47 43 41 38 37 33 30 26 25 24 28 31 29 26 21 20 18 17 16 15 15 13 10 7 6 6 3 4 4 1 2 3 4 6 1 2 2 7 4 5 7 6 6 16 12 14 11
53 50 47 44 40 37 34 32 28 27 25 28 30 26 23 21 19 17 14 13 13 14 13 8 10 8 15 7 9 7 2 4 1 2 5 5 6 3 2 9 10 12 9 7 15 16 10
60 56 52 49 46 41 39 36 33 29 27 26 28 27 24 22 20 16 13 10 18 18 13 13 14 21 20 15 13 11 9 1 3 4 1 8 5 3 7 9 11 13 14 21 18 13 10
66 62 59 55 51 47 43 41 38 34 31 28 27 27 25 23 21 15 13 8 16 16 17 13 17 23 18 12 14 11 16 5 7 4 4 5 10 6 8 12 14 9 3 9 9 3 9
71 68 65 61 58 53 49 44 42 38 35 32 28 28 25 25 21 15 12 12 14 13 9 10 14 22 22 8 12 18 18 8 12 9 11 6 9 12 12 12 11 17 6 4 8 3 4
75 70 68 66 62 59 54 50 46 42 38 35 31 29 27 28 20 16 15 16 14 8 3 1 13 9 23 18 10 19 6 22 11 11 12 5 10 9 19 8 3 6 8 6 13 15 11
82 76 71 68 65 62 58 55 51 47 42 37 35 31 32 28 20 16 17 17 16 7 8 8 14 18 16 14 13 14 15 14 8 7 11 14 13 11 11 3 8 5 4 5 11 10 6
79 80 77 72 69 64 62 59 54 50 45 41 38 34 33 30 23 24 23 18 13 8 8 12 20 16 20 19 15 19 25 22 14 13 12 6 11 12 8 8 6 8 9 2 3 5 3
68 73 78 76 73 68 64 61 57 52 48 45 41 36 35 32 30 26 27 25 14 8 16 10 20 18 17 19 17 18 19 23 25 16 8 13 7 6 9 18 11 8 13 6 5 1 7
55 51 56 75 75 72 67 65 61 55 50 48 44 42 42 34 33 29 33 33 22 18 22 12 20 20 19 19 19 21 23 25 25 26 22 13 12 21 12 7 6 8 7 12 5 5 2
53 60 60 57 68 72 70 67 63 59 54 52 49 48 42 35 37 35 41 38 31 20 13 16 17 20 22 23 22 23 21 23 24 28 24 17 3 9 20 8 10 14 10 2 2 5 4
54 61 59 53 56 67 69 69 66 62 58 54 49 48 43 39 40 42 53 42 36 29 16 11 19 20 23 22 21 20 21 20 23 19 13 16 16 5 19 19 15 15 11 10 8 3 5
52 55 59 55 47 51 48 65 69 66 62 56 55 49 43 45 48 51 58 49 40 32 22 14 14 25 24 22 21 22 22 11 17 20 23 17 10 13 18 11 9 11 6 7 13 6 3
53 55 59 55 48 48 48 48 56 67 66 62 55 48 31 43 53 57 52 50 42 36 25 12 23 20 24 20 25 24 18 14 16 21 14 15 5 8 11 7 11 14 14 17 11 16 14
49 53 57 56 53 43 50 49 51 52 68 64 54 46 44 44 55 57 51 53 50 41 23 16 20 23 19 14 18 17 22 16 19 19 17 17 11 10 10 11 9 9 10 13 14 11 11
49 49 54 53 57 47 49 53 54 52 68 69 56 56 48 57 61 57 52 50 50 44 34 21 21 29 21 16 21 17 18 15 13 10 11 13 17 16 17 17 15 10 11 9 16 15 18
47 50 50 55 50 43 50 53 54 59 73 64 57 54 50 33 55 53 45 55 52 45 30 26 20 25 23 18 20 18 17 14 17 14 14 14 15 15 15 18 19 16 14 19 16 13 16
44 47 50 53 48 48 52 55 56 64 78 68 59 55 48 50 28 55 60 58 48 43 27 25 20 21 23 22 20 15 19 21 12 12 19 19 19 18 14 15 16 18 22 22 18 20 19
41 43 44 45 46 47 47 56 48 64 73 74 65 53 34 48 40 59 54 53 51 44 30 21 20 25 22 23 21 24 18 16 17 17 14 21 18 12 6 7 0 8 3 8 6 2 7
35 38 38 41 41 50 50 54 55 64 66 67 59 61 22 47 42 36 56 57 44 41 28 31 27 34 26 26 23 18 11 9 9 14 15 17 15 11 6 12 11 11 8 9 8 4 7
36 35 32 35 43 47 55 55 61 70 51 68 62 58 23 28 52 49 55 53 49 39 32 42 35 29 27 26 23 12 9 10 8 11 18 19 16 15 10 5 6 3 4 6 5 8 9
35 32 36 38 41 47 43 54 58 76 55 64 66 57 38 13 31 42 50 53 47 37 38 37 33 32 31 29 20 12 12 12 12 10 7 13 16 17 14 7 6 9 11 13 9 9 11
34 35 29 41 41 45 46 52 58 81 57 66 63 54 44 12 34 40 43 49 41 41 39 37 37 33 29 22 19 13 11 18 10 9 7 9 10 13 14 7 9 12 12 12 12 14 12
38 35 31 39 42 44 48 48 53 76 64 66 52 52 45 25 30 35 52 44 33 41 35 31 31 33 25 22 15 17 13 20 16 11 9 9 9 9 7 3 6 5 9 10 12 13 19
Wind_Direction
267 265 260 259 259 259 259 259 260 260 263 266 270 274 279 285 292 297 301 307 309 314 314 313 315 305 303 311 264 297 330 327 300 193 142 113 99 144 239 308 309 250 249 246 255 327 138
273 271 270 268 263 260 258 260 259 258 259 262 265 268 274 281 285 292 298 304 309 311 311 309 309 299 292 2 318 25 4 18 353 174 141 118 98 311 299 296 286 244 261 257 255 116 126
272 274 274 272 272 269 263 258 259 257 256 257 260 263 267 273 281 288 295 300 308 309 306 306 298 283 254 160 295 116 78 62 48 136 132 94 269 264 241 308 25 212 239 222 156 127 47
264 267 273 273 272 270 270 266 259 257 257 256 257 258 262 269 275 283 290 299 306 307 299 295 278 254 166 188 203 143 123 188 115 103 145 57 251 248 249 300 238 247 171 193 153 183 197
263 265 265 266 269 268 267 268 268 262 256 255 253 254 258 264 268 276 284 297 303 300 286 276 252 220 205 203 153 98 40 45 7 329 222 211 239 248 214 122 182 192 252 173 192 205 224
259 258 258 258 259 261 263 263 268 268 263 257 253 249 250 257 262 268 280 292 296 285 268 252 221 196 178 156 158 120 91 109 249 315 80 218 174 173 176 174 200 260 223 222 234 203 219
255 256 257 257 255 256 258 259 257 261 263 258 253 245 243 247 253 260 273 286 280 266 250 216 191 155 135 151 220 218 258 169 15 10 79 85 137 143 208 197 261 242 225 247 255 221 225
253 252 252 252 254 252 252 253 256 258 261 259 253 244 240 243 247 253 264 269 270 279 275 227 203 169 173 179 209 176 218 137 258 259 284 232 232 173 151 290 293 237 300 284 248 199 215
253 251 251 250 248 248 248 250 250 252 256 257 253 244 237 240 243 247 257 254 259 266 282 238 219 191 191 206 199 167 205 193 233 262 285 277 242 207 235 261 260 254 248 258 164 178 206
250 250 250 248 246 245 244 244 247 249 251 255 249 242 229 234 237 237 234 219 233 253 277 253 220 209 200 169 220 169 205 227 236 243 224 232 249 200 249 263 249 258 237 247 185 209 195
248 246 245 246 245 242 240 240 244 247 248 251 251 240 223 228 227 230 226 210 207 219 320 225 221 209 198 188 196 187 232 221 231 233 222 189 197 245 277 265 131 275 219 231 201 239 253
249 245 243 242 241 241 239 236 236 241 243 246 247 239 221 223 218 217 221 205 185 186 247 173 187 196 184 207 205 200 215 194 264 190 282 248 238 259 240 248 216 242 268 238 248 287 197
246 245 242 240 239 236 237 235 234 233 236 239 240 238 222 218 205 204 200 187 190 210 191 204 185 187 199 213 225 212 216 212 208 201 238 221 230 212 245 196 210 235 272 309 338 355 239
240 241 239 237 236 233 231 232 231 231 230 233 235 234 220 212 212 200 196 187 213 227 194 178 191 188 204 204 218 225 207 209 215 210 236 218 246 262 219 231 251 236 258 248 166 174 303
236 237 236 232 231 229 228 226 226 226 225 227 229 227 219 203 210 199 196 200 210 180 193 196 185 194 211 213 216 218 226 223 222 218 236 183 223 268 249 223 271 286 280 273 127 207 81
217 231 232 234 229 222 221 221 220 221 219 220 222 223 221 200 208 201 204 211 208 178 166 204 223 202 213 213 225 212 218 225 230 226 231 223 250 288 201 292 245 241 258 228 169 143 241
218 225 228 231 232 220 214 213 214 213 212 213 211 219 213 198 206 206 211 214 210 191 192 227 243 215 219 217 204 217 218 229 227 214 210 223 237 240 217 246 261 238 249 222 236 251 170
218 220 224 227 231 219 209 209 208 207 205 203 210 211 211 199 202 211 216 211 211 206 201 240 242 227 215 232 203 216 222 237 204 219 236 219 193 159 193 252 245 247 258 255 228 231 218
223 217 220 223 223 206 208 211 202 202 200 196 200 206 199 209 208 214 219 215 213 205 195 230 229 213 219 239 208 211 224 187 187 199 179 187 199 215 253 249 249 254 269 250 272 235 221
218 212 216 218 205 205 211 205 194 195 192 185 190 190 199 203 216 217 215 213 213 204 204 206 234 213 224 252 215 242 207 200 191 201 208 208 212 218 219 251 268 290 270 254 258 239 234
217 207 214 213 200 206 204 195 197 191 183 181 187 195 196 202 206 212 217 212 212 211 207 204 225 214 214 238 210 201 222 216 197 215 234 234 230 223 230 253 272 265 276 268 258 268 245
211 206 207 201 202 206 199 190 191 189 178 185 192 192 200 206 204 201 208 210 211 202 202 203 220 211 214 232 212 227 216 221 228 233 238 225 224 237 246 253 271 279 264 270 262 265 276
196 190 196 200 208 203 196 193 188 185 181 187 186 188 204 204 207 199 207 207 203 195 193 215 201 205 213 218 215 231 224 229 216 237 228 225 226 226 238 254 272 277 265 267 272 261 262
184 190 197 202 205 199 193 186 191 183 187 186 186 177 196 204 210 210 206 201 203 193 202 211 203 198 210 206 214 217 213 226 225 232 232 220 223 224 219 231 38 263 239 248 259 249 257
180 187 194 198 199 193 189 182 188 185 192 188 172 184 186 201 214 205 202 203 193 195 202 210 207 208 211 208 203 197 176 161 162 202 214 222 224 215 200 207 253 245 240 246 240 224 257
179 181 188 186 189 185 189 184 183 186 194 187 172 182 196 204 210 213 202 196 192 190 212 211 198 199 197 192 190 185 192 203 203 201 218 223 228 216 194 197 202 210 229 235 234 202 245
172 179 184 184 179 180 183 180 184 186 195 183 173 184 190 226 206 199 203 190 188 201 211 205 188 174 187 195 192 187 200 207 194 201 208 202 208 215 214 218 245 232 242 257 250 241 239
167 170 165 171 173 179 184 180 186 188 194 181 171 181 188 235 181 190 193 192 197 211 209 186 183 180 180 185 189 179 193 197 198 211 223 211 195 205 210 215 248 225 239 241 251 237 259
159 162 160 167 174 178 179 187 191 190 190 177 170 177 190 179 174 188 188 195 205 210 204 206 206 194 184 185 186 190 179 196 205 185 201 209 216 217 207 203 205 232 249 243 229 246 269